TimeMST,TemperatureF,Dew PointF,Humidity,Sea Level PressureIn,VisibilityMPH,Wind Direction,Wind SpeedMPH,Gust SpeedMPH,PrecipitationIn,Events,Conditions,WindDirDegrees,DateUTC
12:56 AM,53.1,28.9,40,29.82,10.0,NE,4.6,-,N/A,,Clear,50,2012-10-24 07:56:00
1:56 AM,54.0,30.0,40,29.82,10.0,Calm,Calm,-,N/A,,Clear,0,2012-10-24 08:56:00
2:56 AM,50.0,28.0,43,29.81,10.0,Calm,Calm,-,N/A,,Clear,0,2012-10-24 09:56:00
3:56 AM,52.0,32.0,47,29.80,10.0,SE,4.6,-,N/A,,Clear,140,2012-10-24 10:56:00
4:56 AM,46.9,30.0,52,29.83,10.0,NNW,5.8,-,N/A,,Clear,340,2012-10-24 11:56:00
5:56 AM,46.0,28.0,50,29.86,10.0,Calm,Calm,-,N/A,,Clear,0,2012-10-24 12:56:00
6:56 AM,50.0,30.9,48,29.88,10.0,Calm,Calm,-,N/A,,Clear,0,2012-10-24 13:56:00
7:56 AM,54.0,30.0,40,29.88,10.0,SW,3.5,-,N/A,,Clear,230,2012-10-24 14:56:00
8:56 AM,64.9,35.1,33,29.89,10.0,Calm,Calm,-,N/A,,Clear,0,2012-10-24 15:56:00
9:56 AM,71.1,37.9,30,29.88,10.0,Variable,4.6,-,N/A,,Clear,0,2012-10-24 16:56:00
10:56 AM,75.9,36.0,23,29.86,10.0,Variable,6.9,-,N/A,,Clear,0,2012-10-24 17:56:00
11:56 AM,80.1,32.0,17,29.83,10.0,SW,11.5,16.1,N/A,,Clear,230,2012-10-24 18:56:00
12:56 PM,81.0,28.9,15,29.79,10.0,WSW,11.5,-,N/A,,Clear,250,2012-10-24 19:56:00
1:56 PM,82.0,28.9,14,29.77,10.0,SW,6.9,19.6,N/A,,Clear,220,2012-10-24 20:56:00
2:56 PM,82.9,27.0,13,29.76,10.0,SSW,13.8,18.4,N/A,,Clear,210,2012-10-24 21:56:00
3:56 PM,82.9,26.1,13,29.75,10.0,WSW,17.3,23.0,N/A,,Clear,240,2012-10-24 22:56:00
4:56 PM,81.0,30.0,16,29.78,10.0,West,15.0,20.7,N/A,,Clear,260,2012-10-24 23:56:00
5:56 PM,73.0,30.0,20,29.82,10.0,NW,9.2,-,N/A,,Clear,310,2012-10-25 00:56:00
6:56 PM,70.0,36.0,29,29.86,10.0,NNW,13.8,-,N/A,,Clear,330,2012-10-25 01:56:00
7:56 PM,66.0,36.0,33,29.88,10.0,NNW,11.5,-,N/A,,Clear,340,2012-10-25 02:56:00
8:56 PM,63.0,35.1,35,29.86,10.0,NNW,10.4,-,N/A,,Clear,340,2012-10-25 03:56:00
9:56 PM,60.1,34.0,38,29.86,10.0,NNW,12.7,-,N/A,,Clear,330,2012-10-25 04:56:00
10:56 PM,61.0,34.0,36,29.86,10.0,North,12.7,-,N/A,,Clear,350,2012-10-25 05:56:00
11:56 PM,55.9,32.0,40,29.88,10.0,NNW,10.4,-,N/A,,Clear,330,2012-10-25 06:56:00